• MPC Preparation (Info)

  • MPEC 2023-G45 : 2023 GL

    The following Minor Planet Electronic Circular may be linked-to from your own Web pages, but must not otherwise be redistributed electronically.

    A form allowing access to any MPEC is at the bottom of this page.


    Read MPEC 2023-G44 Read MPEC 2023-G46


    M.P.E.C. 2023-G45                                Issued 2023 April 10, 10:41 UT
    
         The Minor Planet Electronic Circulars contain information on unusual
             minor planets, routine data on comets and natural satellites,
             and occasional editorial announcements.  They are published
        on behalf of Division F of the International Astronomical Union by the
              Minor Planet Center, Smithsonian Astrophysical Observatory,
                              Cambridge, MA 02138, U.S.A.
    			  
                 Prepared using the Tamkin Foundation Computer Network
    
                                  MPC@CFA.HARVARD.EDU
                URL https://www.minorplanetcenter.net/    ISSN 1523-6714
    
                                     2023 GL                                 
    
    
    Observations:
         K23G00L*1C2023 04 08.37343814 04 07.540+35 51 33.73         19.17GVEG045703
         K23G00L 1C2023 04 08.38414614 04 05.160+35 48 28.62         19.71GVEG045703
         K23G00L 1C2023 04 08.38948314 04 03.947+35 46 58.62         19.05GVEG045703
         K23G00L KC2023 04 08.40433114 04 00.743+35 42 47.34         18.99GVEG045I52
         K23G00L KC2023 04 08.40491814 04 00.628+35 42 37.08         19.29GVEG045I52
         K23G00L KC2023 04 08.40550414 04 00.509+35 42 27.04         19.29GVEG045I52
         K23G00L KC2023 04 08.40608414 04 00.397+35 42 16.88         19.11GVEG045I52
         K23G00L HC2023 04 08.95946 14 03 38.43 +33 15 04.7          19   GVEG045204
         K23G00L KC2023 04 08.99130814 03 33.99 +33 07 23.0          18.3 GXEG045C95
         K23G00L KC2023 04 09.02522014 03 27.86 +32 59 00.2          18.3 GXEG045C95
         K23G00L KC2023 04 09.05849014 03 21.93 +32 50 44.8          18.1 GXEG045C95
         K23G00L KC2023 04 09.12178314 03 39.20 +32 34 39.6          19.1 VuEG045H21
         K23G00L KC2023 04 09.12458214 03 38.81 +32 34 00.8          19.2 VuEG045H21
         K23G00L KC2023 04 09.12738014 03 38.45 +32 33 22.2          19.1 VuEG045H21
         K23G00L KC2023 04 09.13017614 03 38.06 +32 32 43.5          19.1 VuEG045H21
         K23G00L KC2023 04 09.23733214 03 29.059+32 08 01.86         19.36GVEG045I52
         K23G00L KC2023 04 09.23784814 03 28.973+32 07 55.09         18.70GVEG045I52
         K23G00L KC2023 04 09.23837014 03 28.883+32 07 47.89         19.25GVEG045I52
         K23G00L KC2023 04 09.23888814 03 28.789+32 07 40.62         18.91GVEG045I52
         K23G00L KC2023 04 09.80640614 02 59.112+29 56 57.84         19.3 GVEG045A17
         K23G00L KC2023 04 09.81272614 02 58.601+29 55 39.83         19.3 GVEG045A17
         K23G00L KC2023 04 09.81861414 02 58.082+29 54 27.94         19.1 GVEG045A17
         K23G00L KC2023 04 09.83464614 02 57.12 +29 51 36.0          19.2 GVEG045L01
         K23G00L KC2023 04 09.83613214 02 56.95 +29 51 17.8          19.0 GVEG045L01
         K23G00L KC2023 04 09.83909614 02 56.61 +29 50 41.6          19.0 GVEG045L01
         K23G00L KC2023 04 09.84057614 02 56.45 +29 50 23.5          19.1 GVEG045L01
         K23G00L KC2023 04 09.84267314 02 56.23 +29 49 57.8          19.0 GVEG045L01
         K23G00L KC2023 04 09.84773914 02 55.66 +29 48 55.4          19.2 GVEG045L01
         K23G00L KC2023 04 09.85144 14 02 56.84 +29 48 03.4          18.9 GVEG045C95
         K23G00L KC2023 04 09.85485 14 02 56.51 +29 47 21.4          19.1 GVEG045C95
         K23G00L KC2023 04 09.85805 14 02 56.16 +29 46 42.2          19.5 GVEG045C95
         K23G00L KC2023 04 09.86094 14 02 55.85 +29 46 07.4          19.5 GVEG045C95
         K23G00L KC2023 04 09.86327 14 02 55.58 +29 45 38.9          19.2 GVEG045C95
         K23G00L KB2023 04 09.86546114 02 53.349+29 44 46.56         19.2 GXEG045B72
         K23G00L KC2023 04 09.86568 14 02 55.31 +29 45 09.3          18.9 GVEG045C95
         K23G00L KB2023 04 09.87138814 02 52.737+29 43 33.92         19.2 GXEG045B72
         K23G00L KB2023 04 09.87705614 02 52.095+29 42 24.06         18.7 GXEG045B72
         K23G00L KC2023 04 09.88829314 02 50.62 +29 40 34.1                XEG045595
         K23G00L KC2023 04 09.90250614 02 48.70 +29 37 39.1          19.0 GXEG045595
         K23G00L KC2023 04 09.91458314 02 48.23 +29 35 08.0          19.4 GVEG045203
         K23G00L KC2023 04 09.92893414 02 46.25 +29 32 11.5          19.5 GVEG045203
         K23G00L KB2023 04 09.96274414 02 40.642+29 24 54.04         18.5 GXEG045K74
         K23G00L KB2023 04 09.96879314 02 39.811+29 23 39.12         18.6 GXEG045K74
         K23G00L KB2023 04 09.97483914 02 38.928+29 22 24.10         18.6 GXEG045K74
         K23G00L KB2023 04 09.98114814 02 38.042+29 21 05.62         18.7 GXEG045K74
         K23G00L KB2023 04 09.98719614 02 37.200+29 19 50.74         18.5 GXEG045K74
         K23G00L KB2023 04 09.99350314 02 36.295+29 18 32.22         18.6 GXEG045K74
         K23G00L KC2023 04 09.99660 14 02 35.875+29 17 53.45         19.6 GXEG045K87
         K23G00L KC2023 04 10.01067 14 02 33.835+29 14 58.38         19.6 GXEG045K87
         K23G00L KC2023 04 10.13465614 02 38.42 +28 49 48.3          18.9 GVEG045932
         K23G00L KC2023 04 10.14256414 02 37.40 +28 48 15.3          19.1 GVEG045932
         K23G00L KC2023 04 10.15142814 02 36.13 +28 46 30.8          19.4 GVEG045932
         K23G00L KC2023 04 10.15449514 02 39.45 +28 45 47.3          19.3 VuEG045H21
         K23G00L KC2023 04 10.15642614 02 39.21 +28 45 24.8          19.3 VuEG045H21
         K23G00L KC2023 04 10.15835614 02 38.94 +28 45 02.3          19.5 VuEG045H21
         K23G00L KC2023 04 10.16047814 02 38.68 +28 44 37.5          19.3 VuEG045H21
         K23G00L KC2023 04 10.22697 14 02 37.79 +28 31 08.0          18.3 RVEG045G58
         K23G00L KC2023 04 10.23150 14 02 37.26 +28 30 16.1          18.2 RVEG045G58
         K23G00L KC2023 04 10.23508 14 02 36.84 +28 29 35.3          18.2 RVEG045G58
         K23G00L KC2023 04 10.23917 14 02 36.34 +28 28 48.6          18.3 RVEG045G58
    
    Observer details:
    203 GiaGa Observatory.  Observers S. Foglia, G. Galli.  Measurer G. Galli.
        0.36-m f/5.76 Schmidt-Cassegrain + CCD.
    204 Schiaparelli Observatory.  Observer L. Buzzi.  0.84-m f/3.5 reflector +
        CCD.
    595 Farra d'Isonzo.  Observer E. Pettarin.  0.61-m f/4.5 reflector + CCD.
    703 Catalina Sky Survey.  Observer J. K. Hogan.  Measurers E. J. Christensen,
        D. Fay, J. B. Fazekas, D. C. Fuls, A. R. Gibbs, A. D. Grauer, H. Groeller,
        J. K. Hogan, R. A. Kowalski, S. M. Larson, G. J. Leonard, D. Rankin, R. L.
        Seaman, A. Serrano, F. C. Shelly, K. W. Wierzchos.  0.68-m Schmidt + 10K
        CCD.
    932 John J. McCarthy Obs., New Milford.  Observer M. Robson.  0.4-m f/7.5
        Schmidt-Cassegrain + CCD.
    A17 Guidestar Observatory, Weinheim.  Observers M. Emmerich, S. Melchert.
        0.36-m f/6.0 Schmidt-Cassegrain + CCD.
    B72 Soerth.  Observer B. Koch.  0.36-m f/7.6 Schmidt-Cassegrain + CMO.
    C95 SATINO Remote Observatory, Haute Provence.  Observers J. Jahn, D. Husar.
        0.60-m f/3.2 Newtonian reflector + CCD, 0.30-m f/5.8 reflector + CCD.
    G58 Chabot Space and Science Center, Oakland.  Observer G. McKeegan.  0.9-m
        f/4.5 Cassegrain+CCD.
    H21 Astronomical Research Observatory, Westfield.  Observer R. Holmes.
        Measurers T. Linder, R. Holmes, L. Horn.  0.76-m f/3.0 astrograph + CCD.
    I52 Steward Observatory, Mt. Lemmon Station.  Observer R. A. Kowalski.
        Measurers E. J. Christensen, D. Fay, J. B. Fazekas, D. C. Fuls, A. R.
        Gibbs, A. D. Grauer, H. Groeller, J. K. Hogan, R. A. Kowalski, S. M.
        Larson, G. J. Leonard, D. Rankin, R. L. Seaman, A. Serrano, F. C. Shelly,
        K. W. Wierzchos.  1.0-m prime focus + CCD.
    K74 Muensterschwarzach Observatory, Schwarzach.  Observer C. Gerhard.  0.30-m
        f/3.75 reflector + CMO.
    K87 Dettelbach Vineyard Observatory.  Observer B. Haeusler.  0.30-m f/8.0
        0.30-m Schmidt-Cassegrain + CCD + CCD.
    L01 Visnjan Observatory, Tican.  Observer K. Korlevic.  1.0-m f/2.9 reflector
        + CCD.
    
    Orbital elements:
    2023 GL                                                  Earth MOID = 0.0152 AU
    Epoch 2023 Feb. 25.0 TT = JDT 2460000.5                 Veres                   
    M  12.15365              (2000.0)            P               Q                  
    n   0.78645762     Peri.  334.45382     -0.65118513     -0.75884356             
    a   1.1623917      Node   156.17258     +0.70075677     -0.60663009             
    e   0.2206360      Incl.    1.51696     +0.29137239     -0.23697337             
    P   1.25           H   25.40          G   0.15           U   7                  
    Residuals in seconds of arc
    230408 703  0.7+  2.4+    230409 A17  0.1-  0.3-    230409 203  0.3+  0.1+
    230408 703  0.6+  1.4-    230409 A17  0.4-  0.1+    230409 K74  0.1-  0.0
    230408 703  0.1+  0.8-    230409 L01  0.1+  0.1-    230409 K74  0.2+  0.1+
    230408 I52  0.2-  0.4+    230409 L01  0.1-  0.1-    230409 K74  0.1-  0.1+
    230408 I52  0.1-  0.1+    230409 L01  0.3-  0.0     230409 K74  0.0   0.1-
    230408 I52  0.0   0.0     230409 L01  0.3-  0.1+    230409 K74  0.3+  0.2+
    230408 I52  0.2+  0.2-    230409 L01  0.2-  0.1+    230409 K74  0.3+  0.1+
    230408 204  0.1-  0.2+    230409 L01  0.2-  0.2-    230409 K87  0.4+  0.2-
    230408 C95  0.1+  0.2-    230409 C95  0.2-  0.1+    230410 K87  0.0   0.1+
    230409 C95  0.3-  0.5-    230409 C95  0.2+  0.3-    230410 932  0.2-  0.3-
    230409 C95  0.4-  0.3-    230409 C95  0.1+  0.5-    230410 932  0.5+  0.1-
    230409 H21  0.2+  0.3-    230409 C95  0.2+  0.0     230410 932  0.0   0.1-
    230409 H21  0.1-  0.3-    230409 C95  0.0   0.1-    230410 H21  0.1-  0.1+
    230409 H21  0.1-  0.1-    230409 B72  0.2-  0.0     230410 H21  0.1-  0.1+
    230409 H21  0.3-  0.1-    230409 C95  0.0   0.3-    230410 H21  0.3-  0.1+
    230409 I52  0.1+  0.0     230409 B72  0.3+  0.2+    230410 H21  0.1-  0.1+
    230409 I52  0.1+  0.3+    230409 B72  0.1+  0.1-    230410 G58  0.1+  0.1-
    230409 I52  0.1+  0.2+    230409 595  0.0   0.3-    230410 G58  0.1+  0.2-
    230409 I52  0.0   0.1+    230409 595  0.3-  0.4-    230410 G58  0.2+  0.0
    230409 A17  0.1-  0.0     230409 203  0.3+  0.1+    230410 G58  0.1+  0.1+
    
    Ephemeris:
    2023 GL                  a,e,i = 1.16, 0.22, 2                   q = 0.9059
    Date    TT    R. A. (2000) Decl.     Delta      r    Elong.  Phase     V
    2023 03 11    01 47 46.0 +15 00 28   0.07313 0.9389    40.7   136.4    26.0
    ...
    2023 03 26    01 49 24.9 +38 50 45   0.02776 0.9770    42.5   136.4    24.0
    ...
    2023 04 03    14 38 08.6 +77 16 12   0.01639 1.0015    96.3    82.8    19.4
    ...
    2023 04 09    14 03 29.7 +33 06 29   0.02672 1.0211   137.6    41.4    19.2
    2023 04 10    14 02 34.7 +29 19 06   0.02929 1.0245   141.1    37.9    19.3
    2023 04 11    14 01 49.4 +26 07 56   0.03197 1.0279   144.1    34.9    19.4
    ...
    2023 04 17    13 58 50.4 +14 26 26   0.04956 1.0486   154.8    24.0    20.1
    ...
    2023 04 25    13 56 43.9 +07 12 40   0.07572 1.0771   159.7    18.9    20.9
    ...
    2023 05 10    13 57 14.4 +00 33 47   0.1325  1.1313   155.4    21.8    22.3
    
    M. P. C. Staff               (C) Copyright 2023 MPC           M.P.E.C. 2023-G45
    


    Read MPEC 2023-G44 Read MPEC 2023-G46


    MPEC number:

    Enter an MPEC number in one of the following forms:

    • 1997-B01 (the full form)
    • J97B01 (the packed version of the full form)
    • B01 (the abbreviated form)